Location: Cowley
(49.5667°N, 114.0667°W)
Time: 13:15:20
(UTC+00:00)

N. Korean satellite - Pass Details

Date: 04 December 2021
Orbit: 446 x 491 km, 97.3° (Epoch: 18 January)

Event Time Altitude Azimuth Distance (km) Brightness Sun altitude
Rises 12:34:05 0° 19° (NNE) 2,472 10.3 -25.2°
Reaches altitude 10° 12:36:13 10° 27° (NNE) 1,590 9.4 -24.8°
Maximum altitude 12:39:26 40° 98° (E) 673 7.7 -24.3°
Drops below altitude 10° 12:42:38 10° 170° (S) 1,570 9.3 -23.8°
Sets 12:44:44 0° 178° (S) 2,437 10.2 -23.4°
